EW0784 Weather Reports


Display with metric or nautical units.
time (UTC)temp
F
wind
direction
speed
MPH
gust
MPH
rain 1hr
in
rain 24hr
in
rain mn
in
humidity
%
barometer
mb
20260904014539 80 75 0.0 0.0 0.00 0.01 0.01 75 1008.9
20260904013033 80 91 0.0 0.0 0.00 0.01 0.01 74 1008.8
20260904011537 80 91 0.0 0.0 0.00 0.01 0.01 74 1008.6
20260904010044 81 101 0.0 0.0 0.00 0.01 0.01 73 1008.4
20260904004532 81 99 0.0 0.0 0.00 0.01 0.01 72 1008.4
20260904003031 81 79 0.0 0.0 0.00 0.01 0.01 71 1008.3
20260904001532 82 78 0.0 4.0 0.00 0.01 0.01 70 1008.3
20260904000033 82 114 0.0 1.0 0.00 0.01 0.01 68 1008.3
20260903234530 83 165 0.0 9.0 0.00 0.01 0.01 66 1008.2
20260903233030 84 84 0.0 3.0 0.00 0.01 0.01 63 1007.9
20260903231530 85 64 0.0 10.0 0.00 0.01 0.01 62 1007.8
20260903230028 85 73 1.0 10.0 0.00 0.01 0.01 63 1007.8
20260903224528 85 110 2.0 13.0 0.00 0.01 0.01 62 1007.8
20260903223034 84 140 2.0 16.0 0.00 0.01 0.01 64 1007.7
20260903221527 84 111 0.0 9.0 0.00 0.01 0.01 70 1007.9
20260903220026 83 81 0.0 7.0 0.00 0.01 0.01 71 1007.6
20260903214524 82 99 1.0 10.0 0.00 0.01 0.01 72 1007.9
20260903213023 81 95 0.0 9.0 0.00 0.01 0.01 75 1008.2
20260903211523 79 108 0.0 7.0 0.00 0.01 0.01 77 1008.0
20260903210020 78 80 3.0 12.0 0.00 0.01 0.01 77 1008.6
20260903204520 78 127 0.0 11.0 0.00 0.01 0.01 76 1008.6
20260903203026 80 82 0.0 10.0 0.00 0.01 0.01 73 1008.8
20260903201518 79 169 1.0 8.0 0.00 0.01 0.01 75 1008.7
20260903200015 77 115 0.0 2.0 0.00 0.01 0.01 77 1009.0
20260903194514 76 101 0.0 1.0 0.00 0.01 0.01 82 1009.3
20260903193013 74 148 0.0 0.0 0.01 0.01 0.01 93 1009.4
20260903191513 73 136 0.0 9.0 0.01 0.01 0.01 94 1009.1
20260903190013 74 127 0.0 1.0 0.01 0.01 0.01 93 1009.1
20260903184510 76 115 0.0 4.0 0.01 0.01 0.01 87 1009.3
20260903183008 85 151 0.0 0.0 0.00 0.00 0.00 57 1009.6
20260903181508 87 139 1.0 9.0 0.00 0.00 0.00 55 1009.4
20260903180006 86 117 0.0 12.0 0.00 0.00 0.00 56 1009.5
20260903174509 86 152 0.0 11.0 0.00 0.00 0.00 56 1009.4
20260903173100 85 94 1.0 11.0 0.00 0.00 0.00 56 1009.8
20260903171558 84 165 0.0 8.0 0.00 0.00 0.00 59 1009.9
20260903170056 84 118 0.0 8.0 0.00 0.00 0.00 59 1010.0
20260903164554 83 55 0.0 10.0 0.00 0.00 0.00 63 1010.1
20260903163051 83 160 2.0 11.0 0.00 0.00 0.00 61 1010.0
20260903161551 82 129 0.0 7.0 0.00 0.00 0.00 65 1010.0
20260903154547 82 93 0.0 6.0 0.00 0.00 0.00 65 1010.2
20260903153043 81 117 0.0 7.0 0.00 0.00 0.00 68 1010.1
20260903151541 80 152 0.0 7.0 0.00 0.00 0.00 70 1010.0
20260903150038 79 120 0.0 3.0 0.00 0.00 0.00 72 1010.0
20260903144534 78 129 0.0 4.0 0.00 0.00 0.00 72 1010.0
20260903143033 78 109 0.0 4.0 0.00 0.00 0.00 74 1010.2
20260903141530 77 82 0.0 5.0 0.00 0.00 0.00 77 1010.2
20260903140026 76 96 1.0 5.0 0.00 0.00 0.00 80 1010.3
20260903134523 74 70 0.0 0.0 0.00 0.00 0.00 83 1010.4
20260903133022 73 76 0.0 0.0 0.00 0.00 0.00 87 1010.5
20260903131522 72 88 0.0 0.0 0.00 0.00 0.00 87 1010.6
20260903130021 72 89 2.0 6.0 0.00 0.00 0.00 88 1010.4
20260903124520 70 80 0.0 0.0 0.00 0.00 0.00 90 1010.4
20260903123020 70 91 0.0 0.0 0.00 0.00 0.00 90 1010.4
20260903121520 70 72 0.0 0.0 0.00 0.00 0.00 90 1010.4
20260903120020 70 79 0.0 0.0 0.00 0.00 0.00 89 1010.4
20260903114519 70 115 0.0 4.0 0.00 0.00 0.00 89 1010.3
20260903113024 69 89 2.0 6.0 0.00 0.00 0.00 89 1010.1
20260903111519 69 89 0.0 7.0 0.00 0.00 0.00 88 1010.2
20260903110017 69 105 0.0 7.0 0.00 0.00 0.00 88 1010.5
20260903104516 70 106 0.0 0.0 0.00 0.00 0.00 87 1010.5
20260903103015 70 89 0.0 0.0 0.00 0.00 0.00 87 1010.5
20260903101516 70 91 0.0 2.0 0.00 0.00 0.00 87 1010.1
20260903100012 70 88 0.0 6.0 0.00 0.00 0.00 86 1010.0
20260903094513 70 103 1.0 7.0 0.00 0.00 0.00 86 1010.0
20260903093011 70 89 0.0 0.0 0.00 0.00 0.00 86 1010.1
20260903091511 71 70 0.0 0.0 0.00 0.00 0.00 87 1010.1
20260903090024 70 81 0.0 0.0 0.00 0.00 0.00 87 1010.1
20260903084509 71 46 0.0 0.0 0.00 0.00 0.00 87 1009.9
20260903083006 71 70 0.0 0.0 0.00 0.00 0.00 86 1010.2
20260903081506 71 96 0.0 0.0 0.00 0.00 0.00 86 1010.3
20260903080004 71 74 0.0 0.0 0.00 0.01 0.00 86 1010.4
20260903074501 71 101 0.0 0.0 0.00 0.01 0.00 85 1010.4
20260903073110 72 94 0.0 0.0 0.00 0.01 0.00 84 1010.5
20260903071609 72 71 0.0 0.0 0.00 0.01 0.00 83 1010.5
20260903070056 72 78 0.0 0.0 0.00 0.01 0.00 83 1010.4
20260903064554 73 86 0.0 0.0 0.00 0.01 0.00 83 1010.7
20260903063053 73 113 0.0 0.0 0.00 0.01 0.00 82 1010.8
20260903061556 73 70 0.0 0.0 0.00 0.01 0.00 82 1010.9
20260903060050 73 77 0.0 0.0 0.00 0.01 0.00 82 1010.9
20260903054554 73 86 0.0 0.0 0.00 0.01 0.00 82 1010.8
20260903053051 74 57 0.0 0.0 0.00 0.01 0.00 82 1010.8
20260903051545 74 82 0.0 0.0 0.00 0.01 0.00 81 1011.0
20260903050043 74 87 0.0 0.0 0.00 0.01 0.01 81 1011.1
20260903044543 75 81 0.0 0.0 0.00 0.01 0.01 80 1011.1
20260903043042 75 77 0.0 2.0 0.00 0.01 0.01 79 1011.1
20260903041542 75 82 0.0 0.0 0.00 0.01 0.01 78 1011.1
20260903040040 75 98 0.0 0.0 0.00 0.01 0.01 78 1011.3
20260903034547 75 69 0.0 0.0 0.00 0.01 0.01 78 1011.3
20260903033043 76 85 0.0 1.0 0.00 0.01 0.01 77 1011.3
20260903031550 76 79 0.0 0.0 0.00 0.01 0.01 75 1011.4
20260903030138 76 84 0.0 0.0 0.00 0.01 0.01 74 1011.4
20260903024540 77 99 0.0 0.0 0.00 0.01 0.01 72 1011.3
20260903023038 77 105 0.0 0.0 0.00 0.01 0.01 71 1011.3
20260903021536 77 82 0.0 0.0 0.00 0.01 0.01 69 1011.2
20260903020034 78 88 0.0 0.0 0.00 0.01 0.01 66 1011.1